Time,TemperatureF,DewpointF,PressureIn,WindDirection,WindDirectionDegrees,WindSpeedMPH,WindSpeedGustMPH,Humidity,HourlyPrecipIn,Conditions,Clouds,dailyrainin,SoftwareType,DateUTC
2013-02-15 00:00:00,24.2,21.2,29.96,NNW,348,0.0,0.0,88,0.00,,,0.00,Wunderground v.1.15,2013-02-15 05:00:00,
2013-02-15 00:05:00,24.3,21.0,29.97,NNW,348,0.0,0.0,87,0.00,,,0.00,Wunderground v.1.15,2013-02-15 05:05:00,
2013-02-15 00:10:00,24.4,21.1,29.96,NNW,348,0.0,0.0,87,0.00,,,0.00,Wunderground v.1.15,2013-02-15 05:10:00,
2013-02-15 00:15:00,24.3,20.7,29.96,NNW,348,0.0,0.0,86,0.00,,,0.00,Wunderground v.1.15,2013-02-15 05:15:00,
2013-02-15 00:25:00,22.8,19.2,29.97,NNW,348,0.0,0.0,86,0.00,,,0.00,Wunderground v.1.15,2013-02-15 05:25:00,
2013-02-15 00:30:00,22.5,19.2,29.97,NNW,348,0.0,0.0,87,0.00,,,0.00,Wunderground v.1.15,2013-02-15 05:30:00,
2013-02-15 00:40:00,22.1,19.1,29.96,NNW,348,0.0,0.0,88,0.00,,,0.00,Wunderground v.1.15,2013-02-15 05:40:00,
2013-02-15 00:45:00,22.1,19.4,29.96,NNW,348,0.0,0.0,89,0.00,,,0.00,Wunderground v.1.15,2013-02-15 05:45:00,
2013-02-15 00:55:00,22.0,19.3,29.96,NNW,348,0.0,0.0,89,0.00,,,0.00,Wunderground v.1.15,2013-02-15 05:55:00,
2013-02-15 01:00:00,21.9,18.9,29.96,NNW,348,0.0,0.0,88,0.00,,,0.00,Wunderground v.1.15,2013-02-15 06:00:00,
2013-02-15 01:05:00,21.6,18.6,29.96,NNW,348,0.0,0.0,88,0.00,,,0.00,Wunderground v.1.15,2013-02-15 06:05:00,
2013-02-15 01:15:00,21.1,18.4,29.96,NNW,348,0.0,0.0,89,0.00,,,0.00,Wunderground v.1.15,2013-02-15 06:15:00,
2013-02-15 01:25:00,20.7,18.0,29.96,NNW,348,0.0,0.0,89,0.00,,,0.00,Wunderground v.1.15,2013-02-15 06:25:00,
2013-02-15 01:30:00,20.4,17.7,29.96,NNW,348,0.0,0.0,89,0.00,,,0.00,Wunderground v.1.15,2013-02-15 06:30:00,
2013-02-15 01:35:00,20.2,17.5,29.96,NNW,348,0.0,0.0,89,0.00,,,0.00,Wunderground v.1.15,2013-02-15 06:35:00,
2013-02-15 01:45:00,20.0,17.5,29.96,NNW,348,0.0,0.0,90,0.00,,,0.00,Wunderground v.1.15,2013-02-15 06:45:00,
2013-02-15 01:50:00,19.7,17.2,29.96,NNW,348,0.0,0.0,90,0.00,,,0.00,Wunderground v.1.15,2013-02-15 06:50:00,
2013-02-15 02:00:00,19.6,17.4,29.97,NNW,348,0.0,0.0,91,0.00,,,0.00,Wunderground v.1.15,2013-02-15 07:00:00,
2013-02-15 02:05:00,19.4,17.2,29.97,NNW,348,0.0,0.0,91,0.00,,,0.00,Wunderground v.1.15,2013-02-15 07:05:00,
2013-02-15 02:15:00,19.1,16.9,29.97,NNW,348,0.0,0.0,91,0.00,,,0.00,Wunderground v.1.15,2013-02-15 07:15:00,
2013-02-15 02:20:00,19.0,16.8,29.96,NNW,348,0.0,0.0,91,0.00,,,0.00,Wunderground v.1.15,2013-02-15 07:20:00,
2013-02-15 02:30:00,18.7,16.5,29.96,NNW,348,0.0,0.0,91,0.00,,,0.00,Wunderground v.1.15,2013-02-15 07:30:00,
2013-02-15 02:35:00,18.5,16.3,29.96,NNW,348,0.0,0.0,91,0.00,,,0.00,Wunderground v.1.15,2013-02-15 07:35:00,
2013-02-15 02:40:00,18.3,16.1,29.96,NNW,348,0.0,0.0,91,0.00,,,0.00,Wunderground v.1.15,2013-02-15 07:40:00,
2013-02-15 02:50:00,17.9,15.7,29.96,NNW,348,0.0,0.0,91,0.00,,,0.00,Wunderground v.1.15,2013-02-15 07:50:00,
2013-02-15 03:00:00,17.7,15.8,29.96,NNW,348,0.0,0.0,92,0.00,,,0.00,Wunderground v.1.15,2013-02-15 08:00:00,
2013-02-15 03:05:00,17.7,15.8,29.96,NNW,348,0.0,0.0,92,0.00,,,0.00,Wunderground v.1.15,2013-02-15 08:05:00,
2013-02-15 03:15:00,17.9,16.0,29.96,NNW,348,0.0,0.0,92,0.00,,,0.00,Wunderground v.1.15,2013-02-15 08:15:00,
2013-02-15 03:20:00,17.9,16.0,29.96,NNW,348,0.0,0.0,92,0.00,,,0.00,Wunderground v.1.15,2013-02-15 08:20:00,
2013-02-15 03:30:00,18.1,16.4,29.95,NNW,348,0.0,0.0,93,0.00,,,0.00,Wunderground v.1.15,2013-02-15 08:30:00,
2013-02-15 03:35:00,18.1,16.2,29.96,NNW,348,0.0,0.0,92,0.00,,,0.00,Wunderground v.1.15,2013-02-15 08:35:00,
2013-02-15 03:45:00,18.2,16.5,29.95,NNW,348,0.0,0.0,93,0.00,,,0.00,Wunderground v.1.15,2013-02-15 08:45:00,
2013-02-15 03:50:00,18.2,16.5,29.95,NNW,348,0.0,0.0,93,0.00,,,0.00,Wunderground v.1.15,2013-02-15 08:50:00,
2013-02-15 03:55:00,18.6,16.9,29.96,NNW,348,0.0,0.0,93,0.00,,,0.00,Wunderground v.1.15,2013-02-15 08:55:00,
2013-02-15 04:05:00,19.3,17.9,29.96,NNW,348,0.0,0.0,94,0.00,,,0.00,Wunderground v.1.15,2013-02-15 09:05:00,
2013-02-15 04:15:00,19.4,17.7,29.95,NNW,348,0.0,0.0,93,0.00,,,0.00,Wunderground v.1.15,2013-02-15 09:15:00,
2013-02-15 04:20:00,19.4,17.7,29.95,NNW,348,0.0,0.0,93,0.00,,,0.00,Wunderground v.1.15,2013-02-15 09:20:00,
2013-02-15 04:30:00,18.9,17.0,29.95,NNW,348,0.0,0.0,92,0.00,,,0.00,Wunderground v.1.15,2013-02-15 09:30:00,
2013-02-15 04:35:00,18.7,16.8,29.95,NNW,348,0.0,0.0,92,0.00,,,0.00,Wunderground v.1.15,2013-02-15 09:35:00,
2013-02-15 04:40:00,18.7,16.8,29.95,NNW,348,0.0,0.0,92,0.00,,,0.00,Wunderground v.1.15,2013-02-15 09:40:00,
2013-02-15 04:50:00,19.2,17.5,29.95,NNW,348,0.0,0.0,93,0.00,,,0.00,Wunderground v.1.15,2013-02-15 09:50:00,
2013-02-15 04:55:00,19.5,17.8,29.95,NNW,348,0.0,0.0,93,0.00,,,0.00,Wunderground v.1.15,2013-02-15 09:55:00,
2013-02-15 05:05:00,19.9,18.2,29.95,NNW,348,0.0,0.0,93,0.00,,,0.00,Wunderground v.1.15,2013-02-15 10:05:00,
2013-02-15 05:15:00,20.4,18.7,29.95,NNW,348,0.0,0.0,93,0.00,,,0.00,Wunderground v.1.15,2013-02-15 10:15:00,
2013-02-15 05:25:00,21.0,19.3,29.94,NNW,348,0.0,0.0,93,0.00,,,0.00,Wunderground v.1.15,2013-02-15 10:25:00,
2013-02-15 05:30:00,20.9,19.2,29.94,NNW,348,0.0,0.0,93,0.00,,,0.00,Wunderground v.1.15,2013-02-15 10:30:00,
2013-02-15 05:40:00,20.6,18.6,29.94,NNW,348,0.0,0.0,92,0.00,,,0.00,Wunderground v.1.15,2013-02-15 10:40:00,
2013-02-15 05:45:00,20.5,18.5,29.95,NNW,348,0.0,0.0,92,0.00,,,0.00,Wunderground v.1.15,2013-02-15 10:45:00,
2013-02-15 05:55:00,20.4,18.4,29.95,NNW,348,0.0,0.0,92,0.00,,,0.00,Wunderground v.1.15,2013-02-15 10:55:00,
2013-02-15 06:00:00,20.3,18.3,29.95,NNW,348,0.0,0.0,92,0.00,,,0.00,Wunderground v.1.15,2013-02-15 11:00:00,
2013-02-15 06:05:00,20.1,18.1,29.95,NNW,348,0.0,0.0,92,0.00,,,0.00,Wunderground v.1.15,2013-02-15 11:05:00,
2013-02-15 06:15:00,19.9,17.7,29.95,NNW,348,0.0,0.0,91,0.00,,,0.00,Wunderground v.1.15,2013-02-15 11:15:00,
2013-02-15 06:25:00,19.5,17.3,29.95,NNW,348,0.0,0.0,91,0.00,,,0.00,Wunderground v.1.15,2013-02-15 11:25:00,
2013-02-15 06:30:00,19.3,17.1,29.95,NNW,348,0.0,0.0,91,0.00,,,0.00,Wunderground v.1.15,2013-02-15 11:30:00,
2013-02-15 06:40:00,18.9,16.7,29.95,NNW,348,0.0,0.0,91,0.00,,,0.00,Wunderground v.1.15,2013-02-15 11:40:00,
2013-02-15 06:45:00,18.7,16.5,29.95,NNW,348,0.0,0.0,91,0.00,,,0.00,Wunderground v.1.15,2013-02-15 11:45:00,
2013-02-15 06:55:00,18.5,16.3,29.95,NNW,348,0.0,0.0,91,0.00,,,0.00,Wunderground v.1.15,2013-02-15 11:55:00,
2013-02-15 07:00:00,18.4,16.5,29.95,NNW,348,0.0,0.0,92,0.00,,,0.00,Wunderground v.1.15,2013-02-15 12:00:00,
2013-02-15 07:05:00,18.2,16.0,29.95,NNW,348,0.0,0.0,91,0.00,,,0.00,Wunderground v.1.15,2013-02-15 12:05:00,
2013-02-15 07:15:00,18.0,16.1,29.95,NNW,348,0.0,0.0,92,0.00,,,0.00,Wunderground v.1.15,2013-02-15 12:15:00,
2013-02-15 07:25:00,17.9,16.0,29.95,NNW,348,0.0,0.0,92,0.00,,,0.00,Wunderground v.1.15,2013-02-15 12:25:00,
2013-02-15 07:30:00,18.0,16.1,29.95,NNW,348,0.0,0.0,92,0.00,,,0.00,Wunderground v.1.15,2013-02-15 12:30:00,
2013-02-15 07:40:00,18.6,16.9,29.95,NNW,348,0.0,0.0,93,0.00,,,0.00,Wunderground v.1.15,2013-02-15 12:40:00,
2013-02-15 07:45:00,18.9,17.2,29.95,NNW,348,0.0,0.0,93,0.00,,,0.00,Wunderground v.1.15,2013-02-15 12:45:00,
2013-02-15 07:50:00,19.4,17.7,29.96,NNW,348,0.0,0.0,93,0.00,,,0.00,Wunderground v.1.15,2013-02-15 12:50:00,
2013-02-15 08:00:00,20.3,18.6,29.95,NNW,348,0.0,0.0,93,0.00,,,0.00,Wunderground v.1.15,2013-02-15 13:00:00,
2013-02-15 08:05:00,21.0,19.3,29.96,NNW,348,0.0,0.0,93,0.00,,,0.00,Wunderground v.1.15,2013-02-15 13:05:00,
2013-02-15 08:15:00,21.5,19.5,29.96,NNW,348,0.0,0.0,92,0.00,,,0.00,Wunderground v.1.15,2013-02-15 13:15:00,
2013-02-15 08:25:00,21.6,19.4,29.96,NNW,348,0.0,0.0,91,0.00,,,0.00,Wunderground v.1.15,2013-02-15 13:25:00,
2013-02-15 08:30:00,22.0,19.8,29.96,NNW,348,0.0,0.0,91,0.00,,,0.00,Wunderground v.1.15,2013-02-15 13:30:00,
2013-02-15 08:35:00,23.0,21.0,29.95,NNW,348,0.0,0.0,92,0.00,,,0.00,Wunderground v.1.15,2013-02-15 13:35:00,
2013-02-15 08:45:00,24.9,22.4,29.95,NNW,348,0.0,0.0,90,0.00,,,0.00,Wunderground v.1.15,2013-02-15 13:45:00,
2013-02-15 08:50:00,25.5,21.9,29.96,NNW,348,0.0,0.0,86,0.00,,,0.00,Wunderground v.1.15,2013-02-15 13:50:00,
2013-02-15 09:00:00,26.2,21.7,29.95,NNW,348,0.0,0.0,83,0.00,,,0.00,Wunderground v.1.15,2013-02-15 14:00:00,
2013-02-15 09:05:00,26.9,22.4,29.95,NNW,348,0.0,0.0,83,0.00,,,0.00,Wunderground v.1.15,2013-02-15 14:05:00,
2013-02-15 09:15:00,28.8,23.4,29.95,NNW,348,0.0,0.0,80,0.00,,,0.00,Wunderground v.1.15,2013-02-15 14:15:00,
2013-02-15 09:25:00,31.0,24.6,29.95,NNW,348,0.0,0.0,77,0.00,,,0.00,Wunderground v.1.15,2013-02-15 14:25:00,
2013-02-15 09:30:00,31.8,25.1,29.95,NNW,348,0.0,0.0,76,0.00,,,0.00,Wunderground v.1.15,2013-02-15 14:30:00,
2013-02-15 09:40:00,33.9,25.8,29.95,NNW,348,0.0,0.0,72,0.00,,,0.00,Wunderground v.1.15,2013-02-15 14:40:00,
2013-02-15 09:45:00,34.7,25.6,29.95,NNW,348,0.0,0.0,69,0.00,,,0.00,Wunderground v.1.15,2013-02-15 14:45:00,
2013-02-15 09:50:00,35.1,25.9,29.94,NNW,348,0.0,0.0,69,0.00,,,0.00,Wunderground v.1.15,2013-02-15 14:50:00,
2013-02-15 10:00:00,35.2,25.7,29.94,NNW,348,0.0,0.0,68,0.00,,,0.00,Wunderground v.1.15,2013-02-15 15:00:00,
2013-02-15 10:05:00,35.7,26.2,29.94,NNW,348,0.0,0.0,68,0.00,,,0.00,Wunderground v.1.15,2013-02-15 15:05:00,
2013-02-15 10:15:00,37.0,27.1,29.94,NNW,348,0.0,0.0,67,0.00,,,0.00,Wunderground v.1.15,2013-02-15 15:15:00,
2013-02-15 10:20:00,37.4,26.7,29.94,NNW,348,0.0,1.0,65,0.00,,,0.00,Wunderground v.1.15,2013-02-15 15:20:00,
2013-02-15 10:30:00,37.5,26.8,29.94,NNW,348,0.0,0.0,65,0.00,,,0.00,Wunderground v.1.15,2013-02-15 15:30:00,
2013-02-15 10:35:00,37.7,27.0,29.94,NNW,348,0.0,0.0,65,0.00,,,0.00,Wunderground v.1.15,2013-02-15 15:35:00,
2013-02-15 10:45:00,38.0,27.3,29.94,NNW,330,0.0,0.0,65,0.00,,,0.00,Wunderground v.1.15,2013-02-15 15:45:00,
2013-02-15 10:50:00,38.0,27.3,29.94,West,267,1.0,1.0,65,0.00,,,0.00,Wunderground v.1.15,2013-02-15 15:50:00,
2013-02-15 11:00:00,38.6,27.5,29.93,West,267,0.0,0.0,64,0.00,,,0.00,Wunderground v.1.15,2013-02-15 16:00:00,
2013-02-15 11:05:00,39.2,27.7,29.93,West,267,0.0,0.0,63,0.00,,,0.00,Wunderground v.1.15,2013-02-15 16:05:00,
2013-02-15 11:15:00,40.1,28.1,29.93,West,267,0.0,0.0,62,0.00,,,0.00,Wunderground v.1.15,2013-02-15 16:15:00,
2013-02-15 11:20:00,40.8,28.4,29.93,West,267,0.0,1.0,61,0.00,,,0.00,Wunderground v.1.15,2013-02-15 16:20:00,
2013-02-15 11:30:00,41.8,28.5,29.93,West,267,0.0,0.0,59,0.00,,,0.00,Wunderground v.1.15,2013-02-15 16:30:00,
2013-02-15 11:35:00,42.2,28.5,29.92,West,267,0.0,0.0,58,0.00,,,0.00,Wunderground v.1.15,2013-02-15 16:35:00,
2013-02-15 11:45:00,42.8,29.0,29.92,West,267,0.0,0.0,58,0.00,,,0.00,Wunderground v.1.15,2013-02-15 16:45:00,
2013-02-15 11:50:00,43.3,29.5,29.91,West,267,0.0,1.0,58,0.00,,,0.00,Wunderground v.1.15,2013-02-15 16:50:00,
2013-02-15 12:00:00,44.3,29.1,29.91,West,267,0.0,0.0,55,0.00,,,0.00,Wunderground v.1.15,2013-02-15 17:00:00,
2013-02-15 12:05:00,44.6,29.4,29.91,West,267,0.0,0.0,55,0.00,,,0.00,Wunderground v.1.15,2013-02-15 17:05:00,
2013-02-15 12:15:00,44.4,29.2,29.90,West,267,0.0,0.0,55,0.00,,,0.00,Wunderground v.1.15,2013-02-15 17:15:00,
2013-02-15 12:20:00,44.2,29.0,29.90,SSE,165,0.0,0.0,55,0.00,,,0.00,Wunderground v.1.15,2013-02-15 17:20:00,
2013-02-15 12:25:00,44.7,29.1,29.90,SSE,165,0.0,0.0,54,0.00,,,0.00,Wunderground v.1.15,2013-02-15 17:25:00,
2013-02-15 12:35:00,44.5,28.9,29.89,South,188,1.0,1.0,54,0.00,,,0.00,Wunderground v.1.15,2013-02-15 17:35:00,
2013-02-15 12:40:00,44.8,29.2,29.89,West,269,1.0,1.0,54,0.00,,,0.00,Wunderground v.1.15,2013-02-15 17:40:00,
2013-02-15 12:50:00,45.7,29.1,29.89,South,175,3.0,5.0,52,0.00,,,0.00,Wunderground v.1.15,2013-02-15 17:50:00,
2013-02-15 12:55:00,45.9,29.2,29.89,WSW,244,4.0,5.0,52,0.00,,,0.00,Wunderground v.1.15,2013-02-15 17:55:00,
2013-02-15 13:05:00,46.1,29.0,29.88,SSW,195,3.0,3.0,51,0.00,,,0.00,Wunderground v.1.15,2013-02-15 18:05:00,
2013-02-15 13:15:00,46.9,29.2,29.88,SSE,159,2.0,4.0,50,0.00,,,0.00,Wunderground v.1.15,2013-02-15 18:15:00,
2013-02-15 13:20:00,47.0,28.8,29.88,South,188,5.0,5.0,49,0.00,,,0.00,Wunderground v.1.15,2013-02-15 18:20:00,
2013-02-15 13:30:00,47.2,29.0,29.88,West,279,4.0,5.0,49,0.00,,,0.00,Wunderground v.1.15,2013-02-15 18:30:00,
2013-02-15 13:35:00,47.3,29.1,29.88,SE,132,3.0,5.0,49,0.00,,,0.00,Wunderground v.1.15,2013-02-15 18:35:00,
2013-02-15 13:40:00,47.2,29.0,29.88,SW,214,3.0,3.0,49,0.00,,,0.00,Wunderground v.1.15,2013-02-15 18:40:00,
2013-02-15 13:50:00,47.6,28.9,29.88,SSE,157,2.0,2.0,48,0.00,,,0.00,Wunderground v.1.15,2013-02-15 18:50:00,
2013-02-15 13:55:00,47.6,28.9,29.88,WSW,256,3.0,3.0,48,0.00,,,0.00,Wunderground v.1.15,2013-02-15 18:55:00,
2013-02-15 14:05:00,48.1,29.8,29.88,SW,219,2.0,2.0,49,0.00,,,0.00,Wunderground v.1.15,2013-02-15 19:05:00,
2013-02-15 14:15:00,47.9,28.6,29.88,SSW,199,3.0,3.0,47,0.00,,,0.00,Wunderground v.1.15,2013-02-15 19:15:00,
2013-02-15 14:20:00,48.0,28.7,29.88,SW,217,3.0,3.0,47,0.00,,,0.00,Wunderground v.1.15,2013-02-15 19:20:00,
2013-02-15 14:25:00,48.0,28.7,29.88,WNW,299,2.0,3.0,47,0.00,,,0.00,Wunderground v.1.15,2013-02-15 19:25:00,
2013-02-15 14:35:00,47.7,28.4,29.88,West,275,2.0,3.0,47,0.00,,,0.00,Wunderground v.1.15,2013-02-15 19:35:00,
2013-02-15 14:40:00,47.8,28.5,29.88,SSE,165,2.0,4.0,47,0.00,,,0.00,Wunderground v.1.15,2013-02-15 19:40:00,
2013-02-15 14:50:00,48.4,29.1,29.88,SSW,194,2.0,2.0,47,0.00,,,0.00,Wunderground v.1.15,2013-02-15 19:50:00,
2013-02-15 14:55:00,48.8,28.9,29.88,NE,48,1.0,2.0,46,0.00,,,0.00,Wunderground v.1.15,2013-02-15 19:55:00,
2013-02-15 15:00:00,49.0,29.1,29.88,SSW,210,1.0,1.0,46,0.00,,,0.00,Wunderground v.1.15,2013-02-15 20:00:00,
2013-02-15 15:05:00,48.8,28.9,29.88,NW,313,1.0,4.0,46,0.00,,,0.00,Wunderground v.1.15,2013-02-15 20:05:00,
2013-02-15 15:15:00,48.5,29.2,29.88,NNW,337,1.0,2.0,47,0.00,,,0.00,Wunderground v.1.15,2013-02-15 20:15:00,
2013-02-15 15:20:00,48.4,28.5,29.88,North,360,1.0,1.0,46,0.00,,,0.00,Wunderground v.1.15,2013-02-15 20:20:00,
2013-02-15 15:25:00,48.2,28.4,29.88,West,279,2.0,2.0,46,0.00,,,0.00,Wunderground v.1.15,2013-02-15 20:25:00,
2013-02-15 15:30:00,48.1,28.3,29.88,SSE,151,2.0,2.0,46,0.00,,,0.00,Wunderground v.1.15,2013-02-15 20:30:00,
2013-02-15 15:40:00,48.0,28.2,29.88,SW,234,1.0,1.0,46,0.00,,,0.00,Wunderground v.1.15,2013-02-15 20:40:00,
2013-02-15 15:45:00,48.0,28.2,29.88,SW,233,1.0,1.0,46,0.00,,,0.00,Wunderground v.1.15,2013-02-15 20:45:00,
2013-02-15 15:55:00,47.7,27.4,29.88,North,360,2.0,3.0,45,0.00,,,0.00,Wunderground v.1.15,2013-02-15 20:55:00,
2013-02-15 16:00:00,47.6,27.3,29.88,South,186,2.0,4.0,45,0.00,,,0.00,Wunderground v.1.15,2013-02-15 21:00:00,
2013-02-15 16:05:00,47.3,27.5,29.88,NW,312,2.0,4.0,46,0.00,,,0.00,Wunderground v.1.15,2013-02-15 21:05:00,
2013-02-15 16:15:00,46.7,27.0,29.88,NNW,333,1.0,2.0,46,0.00,,,0.00,Wunderground v.1.15,2013-02-15 21:15:00,
2013-02-15 16:25:00,46.1,27.5,29.88,WNW,301,1.0,1.0,48,0.00,,,0.00,Wunderground v.1.15,2013-02-15 21:25:00,
2013-02-15 16:30:00,45.8,27.7,29.88,ENE,63,1.0,1.0,49,0.00,,,0.00,Wunderground v.1.15,2013-02-15 21:30:00,
2013-02-15 16:40:00,45.7,27.6,29.89,North,11,1.0,1.0,49,0.00,,,0.00,Wunderground v.1.15,2013-02-15 21:40:00,
2013-02-15 16:45:00,45.4,27.3,29.89,NE,44,1.0,1.0,49,0.00,,,0.00,Wunderground v.1.15,2013-02-15 21:45:00,
2013-02-15 16:50:00,45.2,27.2,29.89,NNW,332,1.0,2.0,49,0.00,,,0.00,Wunderground v.1.15,2013-02-15 21:50:00,
2013-02-15 17:00:00,44.7,27.2,29.90,West,265,0.0,0.0,50,0.00,,,0.00,Wunderground v.1.15,2013-02-15 22:00:00,
2013-02-15 17:05:00,44.2,27.7,29.90,West,275,0.0,0.0,52,0.00,,,0.00,Wunderground v.1.15,2013-02-15 22:05:00,
2013-02-15 17:15:00,43.7,26.7,29.90,West,281,1.0,1.0,51,0.00,,,0.00,Wunderground v.1.15,2013-02-15 22:15:00,
2013-02-15 17:25:00,43.8,27.3,29.91,NNW,338,1.0,1.0,52,0.00,,,0.00,Wunderground v.1.15,2013-02-15 22:25:00,
2013-02-15 17:30:00,43.5,27.0,29.91,NNE,32,1.0,1.0,52,0.00,,,0.00,Wunderground v.1.15,2013-02-15 22:30:00,
2013-02-15 17:40:00,43.1,27.1,29.91,West,262,1.0,1.0,53,0.00,,,0.00,Wunderground v.1.15,2013-02-15 22:40:00,
2013-02-15 17:45:00,42.8,27.3,29.91,West,262,0.0,1.0,54,0.00,,,0.00,Wunderground v.1.15,2013-02-15 22:45:00,
2013-02-15 17:55:00,42.3,27.3,29.91,WSW,247,0.0,0.0,55,0.00,,,0.00,Wunderground v.1.15,2013-02-15 22:55:00,
2013-02-15 18:00:00,42.2,27.2,29.92,NW,318,0.0,0.0,55,0.00,,,0.00,Wunderground v.1.15,2013-02-15 23:00:00,
2013-02-15 18:05:00,41.8,26.8,29.92,NNE,21,0.0,0.0,55,0.00,,,0.00,Wunderground v.1.15,2013-02-15 23:05:00,
2013-02-15 18:15:00,41.1,27.0,29.92,NE,52,0.0,2.0,57,0.00,,,0.00,Wunderground v.1.15,2013-02-15 23:15:00,
2013-02-15 18:20:00,40.9,26.8,29.92,NE,53,0.0,1.0,57,0.00,,,0.00,Wunderground v.1.15,2013-02-15 23:20:00,
2013-02-15 18:30:00,40.5,26.4,29.92,NNW,348,0.0,0.0,57,0.00,,,0.00,Wunderground v.1.15,2013-02-15 23:30:00,
2013-02-15 18:35:00,40.3,26.3,29.93,NNW,348,0.0,0.0,57,0.00,,,0.00,Wunderground v.1.15,2013-02-15 23:35:00,
2013-02-15 18:45:00,39.6,26.0,29.93,NNW,341,0.0,0.0,58,0.00,,,0.00,Wunderground v.1.15,2013-02-15 23:45:00,
2013-02-15 18:50:00,39.6,26.0,29.93,North,355,1.0,1.0,58,0.00,,,0.00,Wunderground v.1.15,2013-02-15 23:50:00,
2013-02-15 18:55:00,39.7,26.1,29.93,NNW,331,0.0,1.0,58,0.00,,,0.00,Wunderground v.1.15,2013-02-15 23:55:00,
2013-02-15 19:05:00,39.4,26.2,29.93,NNE,19,0.0,0.0,59,0.00,,,0.00,Wunderground v.1.15,2013-02-16 00:05:00,
2013-02-15 19:15:00,39.6,26.0,29.93,North,9,0.0,1.0,58,0.00,,,0.00,Wunderground v.1.15,2013-02-16 00:15:00,
2013-02-15 19:20:00,39.5,25.9,29.93,NE,48,0.0,1.0,58,0.00,,,0.00,Wunderground v.1.15,2013-02-16 00:20:00,
2013-02-15 19:25:00,39.5,25.9,29.93,NE,46,0.0,1.0,58,0.00,,,0.00,Wunderground v.1.15,2013-02-16 00:25:00,
2013-02-15 19:35:00,39.2,25.2,29.93,NE,42,0.0,0.0,57,0.00,,,0.00,Wunderground v.1.15,2013-02-16 00:35:00,
2013-02-15 19:40:00,39.1,24.7,29.93,NNE,19,0.0,0.0,56,0.00,,,0.00,Wunderground v.1.15,2013-02-16 00:40:00,
2013-02-15 19:50:00,39.4,24.6,29.93,NNW,346,1.0,1.0,55,0.00,,,0.00,Wunderground v.1.15,2013-02-16 00:50:00,
2013-02-15 19:55:00,39.3,24.0,29.93,NNW,346,0.0,1.0,54,0.00,,,0.00,Wunderground v.1.15,2013-02-16 00:55:00,
2013-02-15 20:05:00,38.9,23.7,29.93,SE,142,0.0,0.0,54,0.00,,,0.00,Wunderground v.1.15,2013-02-16 01:05:00,
2013-02-15 20:15:00,38.9,23.2,29.93,North,360,0.0,1.0,53,0.00,,,0.00,Wunderground v.1.15,2013-02-16 01:15:00,
2013-02-15 20:20:00,39.1,23.4,29.93,NW,321,0.0,0.0,53,0.00,,,0.00,Wunderground v.1.15,2013-02-16 01:20:00,
2013-02-15 20:25:00,39.1,23.8,29.94,NW,321,0.0,0.0,54,0.00,,,0.00,Wunderground v.1.15,2013-02-16 01:25:00,
2013-02-15 20:35:00,38.3,24.4,29.93,NW,319,0.0,0.0,57,0.00,,,0.00,Wunderground v.1.15,2013-02-16 01:35:00,
2013-02-15 20:40:00,38.0,24.1,29.93,NW,319,0.0,0.0,57,0.00,,,0.00,Wunderground v.1.15,2013-02-16 01:40:00,
2013-02-15 20:50:00,37.0,25.6,29.94,NW,319,0.0,1.0,63,0.00,,,0.00,Wunderground v.1.15,2013-02-16 01:50:00,
2013-02-15 20:55:00,35.9,25.6,29.94,NW,319,0.0,1.0,66,0.00,,,0.00,Wunderground v.1.15,2013-02-16 01:55:00,
2013-02-15 21:05:00,36.1,24.7,29.94,NW,325,0.0,2.0,63,0.00,,,0.00,Wunderground v.1.15,2013-02-16 02:05:00,
2013-02-15 21:15:00,36.6,24.8,29.94,NW,324,0.0,0.0,62,0.00,,,0.00,Wunderground v.1.15,2013-02-16 02:15:00,
2013-02-15 21:20:00,36.3,26.7,29.94,NW,324,0.0,0.0,68,0.00,,,0.00,Wunderground v.1.15,2013-02-16 02:20:00,
2013-02-15 21:25:00,35.2,26.7,29.94,NW,324,0.0,0.0,71,0.00,,,0.00,Wunderground v.1.15,2013-02-16 02:25:00,
2013-02-15 21:35:00,34.0,25.9,29.94,NW,324,0.0,0.0,72,0.00,,,0.00,Wunderground v.1.15,2013-02-16 02:35:00,
2013-02-15 21:40:00,33.7,26.0,29.94,NW,324,0.0,0.0,73,0.00,,,0.00,Wunderground v.1.15,2013-02-16 02:40:00,
2013-02-15 21:50:00,33.5,26.1,29.94,NW,323,0.0,0.0,74,0.00,,,0.00,Wunderground v.1.15,2013-02-16 02:50:00,
2013-02-15 21:55:00,33.6,26.5,29.94,NW,324,0.0,0.0,75,0.00,,,0.00,Wunderground v.1.15,2013-02-16 02:55:00,
2013-02-15 22:05:00,33.5,26.7,29.93,NW,323,0.0,0.0,76,0.00,,,0.00,Wunderground v.1.15,2013-02-16 03:05:00,
2013-02-15 22:15:00,33.3,27.8,29.93,NW,323,0.0,0.0,80,0.00,,,0.00,Wunderground v.1.15,2013-02-16 03:15:00,
2013-02-15 22:20:00,33.1,27.6,29.93,NW,323,0.0,0.0,80,0.00,,,0.00,Wunderground v.1.15,2013-02-16 03:20:00,
2013-02-15 22:25:00,33.0,27.5,29.94,NW,323,0.0,0.0,80,0.00,,,0.00,Wunderground v.1.15,2013-02-16 03:25:00,
2013-02-15 22:35:00,32.8,27.3,29.93,NW,324,0.0,0.0,80,0.00,,,0.00,Wunderground v.1.15,2013-02-16 03:35:00,
2013-02-15 22:40:00,32.7,27.2,29.93,NW,324,0.0,0.0,80,0.00,,,0.00,Wunderground v.1.15,2013-02-16 03:40:00,
2013-02-15 22:50:00,32.5,27.0,29.94,NW,324,0.0,1.0,80,0.00,,,0.00,Wunderground v.1.15,2013-02-16 03:50:00,
2013-02-15 22:55:00,32.4,26.6,29.94,NW,324,0.0,1.0,79,0.00,,,0.00,Wunderground v.1.15,2013-02-16 03:55:00,
2013-02-15 23:05:00,32.4,26.6,29.93,NW,324,0.0,0.0,79,0.00,,,0.00,Wunderground v.1.15,2013-02-16 04:05:00,
2013-02-15 23:15:00,32.4,26.3,29.93,NW,323,0.0,0.0,78,0.00,,,0.00,Wunderground v.1.15,2013-02-16 04:15:00,
2013-02-15 23:20:00,32.4,27.2,29.93,NW,323,0.0,0.0,81,0.00,,,0.00,Wunderground v.1.15,2013-02-16 04:20:00,
2013-02-15 23:25:00,32.4,27.5,29.94,NW,323,0.0,0.0,82,0.00,,,0.00,Wunderground v.1.15,2013-02-16 04:25:00,
2013-02-15 23:35:00,32.0,27.1,29.93,NW,324,0.0,0.0,82,0.00,,,0.00,Wunderground v.1.15,2013-02-16 04:35:00,
2013-02-15 23:40:00,31.9,27.3,29.94,NW,324,0.0,0.0,83,0.00,,,0.00,Wunderground v.1.15,2013-02-16 04:40:00,
2013-02-15 23:50:00,31.6,27.0,29.93,NW,324,0.0,0.0,83,0.00,,,0.00,Wunderground v.1.15,2013-02-16 04:50:00,
2013-02-15 23:55:00,31.5,26.9,29.93,NW,324,0.0,0.0,83,0.00,,,0.00,Wunderground v.1.15,2013-02-16 04:55:00,